Tri-State/Milton J. Ferguson Field
KHTS : now visible

Airfield :











YOU CAN JOIN US ON...

 
LOGIN :

Register | Disclaimer

   EN    FR    IT 

 









Legend :    VFR   Marginal VFR   IFR   Intensive IFR   Very Intensive IFR
Visi :
Ceiling :
>= 8 km
>= 3000ft
5 to 8 km
1000 to 3000 ft
1500m to 5 km
500 to 1000 ft
800 to 1500m
200 to 500 ft
< 800m
< 200 ft
Symbols :   Thunderstorms  Fog  Heavy snow  Heavy precipitations  Wind > 20 kt






- Airport Elevation : 828 ft
- IATA code : HTS


KHTS - Tri-State/Milton J. Ferguson Field

CURRENT METAR :
  • 270351Z 28006G14KT 10SM OVC036 07/02 A2998 RMK AO2 SLP153 T00720017

EXPIRED METARs :
  • 270251Z 30009KT 10SM FEW026 OVC043 08/02 A2996 RMK AO2 SLP145 T00780022 53020
  • 270151Z 30008KT 10SM FEW038 BKN047 09/02 A2994 RMK AO2 SLP137 T00890022

TAF KHTS
Valid from the 27 at 03:00 until the 28 at 00:00 UTC


270314Z 2703/2724 30009KT P6SM FEW026 OVC045
FM270600 32005KT P6SM BKN018
FM272100 36006KT P6SM BKN022
KZID FIR / North America



MET'MAP, your aeronautical weather chart ! - Copyright ORBIFLY December 2007 - Disclaimer

ORBIFLY MET'MAP TEAM :

Programming & Development : Alexandra Zaïnal
Concept & original design : Baudouin d'Aumeries
Assistance for programming : Marc-Olivier Méhu
Technical & hardware support : Manuel Goepfert

Contact : metmap@orbifly.com




SOURCES & CREDITS :

   NOAA       Earth
Advisory